Volver al catálogo

STARLINK-5580

ActivoComunicacionesVLEO
NORAD 55748·PAYLOAD·🇺🇸 United States

Lanzado Mar 3, 2023 desde Vandenberg Space Force Base

Loading…

Próximos Pases (próximas 24 horas)

TLE

ActualizadoSource: CelesTrak SupGP

Época: Sep 15, 2026, 02:16 UTC

1 55748C 23028H   26258.09493056  .00028677  00000+0  24032-2 0  2583
2 55748  69.9998 126.9388 0002909 271.7174 325.7102 14.98316717    15

Sigue STARLINK-5580 en tiempo real con AllMySat

Download on the App Store